Find Starlink 37031

NORAD ID: 68172 Int'l Des: 2026-050 Owner: SPXS Country: US Constellation: starlink operational
LEOCIRCULAR

Live-Position

3D-Globus wird geladen...

Über Starlink 37031

Beschreibung wird geladen...

Nächste Überflüge

Passes for default location (London). Set your location on the main map for personalized predictions.

Höhenverlauf

Loading altitude history...

Zweizeiliger Elementsatz

1 68172U 26050F 26121.11765288 .00064011 00000-0 16380-2 0 9999
2 68172 53.1603 24.4014 0001269 66.5388 293.5750 15.38841904 8690
Epoch: 1. Mai 2026 • Age: 7 hours

Aktueller Status

Höhe 455.1 km
Geschwindigkeit 7.65 km/s
Subsatellitenpunkt 53.10°N, 105.16°E
Startdatum 14. März 2026
Alter 0.1 years
Typ internet

Technische Details

Klassifizierung Payload
Masse 575.00 kg
Trockenmasse 530.00 kg
Gesamtmasse 575.00 kg
Länge 0.30 m
Durchmesser 4.10 m
Spannweite 29.00 m
Form Box + pan
Hersteller SPXS
Bus-Typ Starlink V2MO
Phasenstatus In Orbit
Besitzer/Staat SPXS/US

Most Searched